Location: W�rzburg
(49.7529°N, 9.8822°E)
Time: 16:50:08
(UTC+02:00)

ISS - Visible Passes

Search period start: 18 July 2018 00:00
Search period end: 28 July 2018 00:00
Orbit: 402 x 408 km, 51.6° (Epoch: 18 July)

Date Brightness Start Highest point End Pass type
(mag) Time Alt. Az. Time Alt. Az. Time Alt. Az.
18 Jul -3.8 00:50:10 63° ESE 00:50:10 63° ESE 00:53:07 10° ENE visible
18 Jul -3.3 02:23:08 10° W 02:26:24 60° N 02:29:41 10° E visible
18 Jul -3.9 03:59:44 10° WNW 04:03:03 89° SW 04:06:21 10° ESE visible
18 Jul -3.5 23:58:10 45° SE 23:58:10 45° SE 00:01:00 10° ENE visible
19 Jul -3.5 01:30:59 10° W 01:34:16 65° N 01:37:33 10° ENE visible
19 Jul -3.6 03:07:39 10° WNW 03:10:57 72° NNE 03:14:15 10° E visible
19 Jul -3.2 04:44:15 10° W 04:47:20 37° SSW 04:50:24 10° SE visible
19 Jul -3.1 23:02:53 10° SSW 23:05:49 31° SSE 23:08:47 10° E visible
20 Jul -3.8 00:38:51 10° WSW 00:42:08 78° NNW 00:45:26 10° ENE visible
20 Jul -3.4 02:15:32 10° WNW 02:18:48 62° N 02:22:05 10° E visible
20 Jul -3.8 03:52:05 10° WNW 03:55:19 56° SSW 03:58:33 10° SE visible
20 Jul -2.5 22:11:25 10° S 22:13:53 20° SE 22:16:22 10° E visible
20 Jul -4.0 23:46:45 10° WSW 23:50:02 80° SSE 23:53:20 10° ENE visible
21 Jul -3.3 01:23:22 10° W 01:26:38 59° N 01:29:55 10° E visible
21 Jul -4.0 02:59:57 10° WNW 03:03:16 81° SSW 03:06:34 10° ESE visible
21 Jul -2.5 04:36:53 10° W 04:39:24 20° SW 04:41:54 10° SSE visible
21 Jul -3.8 22:54:44 10° SW 22:57:57 55° SSE 23:01:11 10° ENE visible
22 Jul -3.4 00:31:11 10° W 00:34:27 62° N 00:37:44 10° ENE visible
22 Jul -3.8 02:07:50 10° WNW 02:11:08 78° NNE 02:14:26 10° ESE visible
22 Jul -3.1 03:44:29 10° W 03:47:27 31° SSW 03:50:25 10° SSE visible
22 Jul -3.2 22:02:52 10° SW 22:05:55 36° SSE 22:08:58 10° E visible
22 Jul -3.6 23:39:00 10° W 23:42:17 72° N 23:45:35 10° ENE visible
23 Jul -3.5 01:15:41 10° WNW 01:18:58 65° N 01:20:50 23° E visible
23 Jul -1.9 02:52:14 10° WNW 02:53:20 19° W 02:53:20 19° W visible
23 Jul -3.9 22:46:50 10° WSW 22:50:07 89° SSE 22:53:26 10° ENE visible
24 Jul -3.3 00:23:30 10° W 00:26:46 60° N 00:29:08 17° E visible
24 Jul -2.3 02:00:04 10° WNW 02:01:44 27° W 02:01:44 27° W visible
24 Jul -3.8 21:54:44 10° WSW 21:57:59 64° SSE 22:01:15 10° ENE visible
24 Jul -3.3 23:31:17 10° W 23:34:32 61° N 23:37:49 10° ENE visible
25 Jul -3.6 01:07:54 10° WNW 01:10:44 63° WNW 01:10:44 63° WNW visible
25 Jul -3.5 22:39:03 10° W 22:42:19 68° N 22:45:36 10° ENE visible
26 Jul -3.6 00:15:43 10° WNW 00:19:00 69° N 00:19:58 41° E visible
26 Jul -1.2 01:52:18 10° W 01:52:35 12° W 01:52:35 12° W visible
26 Jul -3.7 21:46:49 10° WSW 21:50:07 83° NNW 21:53:25 10° ENE visible
26 Jul -3.4 23:23:30 10° WNW 23:26:46 61° N 23:29:16 16° E visible
27 Jul -2.4 01:00:03 10° WNW 01:01:54 30° W 01:01:54 30° W visible
27 Jul -3.3 22:31:16 10° W 22:34:31 59° N 22:37:46 10° E visible
